EN

Hourly Weather Dzierzaczka

Today, 27 October, Tuesday

Time Temperature Precipitation Wind Pressure Humidity
00:00 +12°C° 0 mm 3 mps 749 mmHg 84%
01:00 +12°C° 0 mm 3 mps 749 mmHg 87%
02:00 +11°C° 0 mm 3 mps 750 mmHg 89%
03:00 +11°C° 0 mm 3 mps 750 mmHg 90%
04:00 +10°C° 0 mm 2 mps 750 mmHg 92%
05:00 +10°C° 0 mm 2 mps 751 mmHg 92%
06:00 +10°C° 0 mm 2 mps 751 mmHg 91%
07:00 +10°C° 0 mm 2 mps 752 mmHg 91%
08:00 +10°C° 0.1 mm 2 mps 752 mmHg 91%
09:00 +12°C° 0.1 mm 2 mps 752 mmHg 90%
10:00 +12°C° 0.1 mm 2 mps 753 mmHg 90%
11:00 +12°C° 0.1 mm 2 mps 753 mmHg 88%
12:00 +12°C° 0.1 mm 2 mps 753 mmHg 85%
13:00 +12°C° 0.1 mm 2 mps 753 mmHg 83%
14:00 +12°C° 0 mm 2 mps 753 mmHg 82%
15:00 +12°C° 0 mm 2 mps 753 mmHg 81%
16:00 +12°C° 0 mm 2 mps 753 mmHg 79%
17:00 +10°C° 0 mm 2 mps 753 mmHg 80%
18:00 +10°C° 0 mm 2 mps 754 mmHg 81%
19:00 +10°C° 0 mm 2 mps 754 mmHg 81%
20:00 +10°C° 0.3 mm 2 mps 754 mmHg 82%
21:00 +10°C° 0.3 mm 2 mps 754 mmHg 83%
22:00 +10°C° 0.3 mm 2 mps 754 mmHg 85%
23:00 +9°C° 0 mm 2 mps 754 mmHg 86%

Tomorrow, 28 October, Wednesday

Time Temperature Precipitation Wind Pressure Humidity
00:00 +9°C° 0 mm 2 mps 755 mmHg 88%
01:00 +8°C° 0 mm 2 mps 755 mmHg 90%
02:00 +8°C° 0 mm 3 mps 755 mmHg 90%
03:00 +8°C° 0 mm 3 mps 755 mmHg 90%
04:00 +7°C° 0 mm 3 mps 755 mmHg 90%
05:00 +7°C° 0 mm 3 mps 755 mmHg 89%
06:00 +7°C° 0 mm 3 mps 755 mmHg 89%
07:00 +7°C° 0 mm 3 mps 755 mmHg 88%
08:00 +7°C° 0 mm 4 mps 755 mmHg 82%
09:00 +9°C° 0 mm 5 mps 755 mmHg 75%
10:00 +10°C° 0 mm 5 mps 755 mmHg 69%
11:00 +12°C° 0 mm 5 mps 755 mmHg 66%
12:00 +12°C° 0 mm 5 mps 755 mmHg 63%
13:00 +13°C° 0 mm 5 mps 755 mmHg 60%
14:00 +12°C° 0 mm 5 mps 755 mmHg 62%
15:00 +12°C° 0 mm 4 mps 755 mmHg 64%
16:00 +12°C° 0 mm 3 mps 755 mmHg 67%
17:00 +11°C° 0 mm 3 mps 755 mmHg 69%
18:00 +10°C° 0 mm 3 mps 755 mmHg 71%
19:00 +9°C° 0 mm 3 mps 755 mmHg 74%
20:00 +9°C° 0 mm 3 mps 756 mmHg 76%
21:00 +9°C° 0 mm 3 mps 756 mmHg 78%
22:00 +9°C° 0 mm 3 mps 756 mmHg 80%
23:00 +9°C° 0 mm 3 mps 756 mmHg 82%

Day after tomorrow, 29 October, Thursday

Time Temperature Precipitation Wind Pressure Humidity
00:00 +8°C° 0 mm 3 mps 756 mmHg 84%
01:00 +8°C° 0 mm 3 mps 756 mmHg 86%
02:00 +8°C° 0 mm 3 mps 756 mmHg 88%
03:00 +8°C° 0 mm 3 mps 756 mmHg 90%
04:00 +7°C° 0 mm 3 mps 756 mmHg 91%
05:00 +7°C° 0 mm 3 mps 756 mmHg 91%
06:00 +7°C° 0 mm 3 mps 756 mmHg 90%
07:00 +6°C° 0 mm 4 mps 756 mmHg 89%
08:00 +7°C° 0 mm 4 mps 756 mmHg 87%
09:00 +8°C° 0 mm 4 mps 755 mmHg 84%
10:00 +10°C° 0 mm 4 mps 755 mmHg 82%
11:00 +10°C° 0 mm 4 mps 755 mmHg 82%
12:00 +10°C° 0 mm 4 mps 755 mmHg 81%
13:00 +11°C° 0 mm 4 mps 755 mmHg 81%
14:00 +11°C° 0.5 mm 4 mps 755 mmHg 83%
15:00 +10°C° 0.5 mm 4 mps 755 mmHg 85%
16:00 +10°C° 0.5 mm 4 mps 755 mmHg 87%
17:00 +10°C° 0.3 mm 4 mps 756 mmHg 87%
18:00 +8°C° 0.3 mm 4 mps 756 mmHg 87%
19:00 +7°C° 0.3 mm 4 mps 757 mmHg 87%
20:00 +7°C° 0 mm 4 mps 757 mmHg 87%
21:00 +6°C° 0 mm 4 mps 758 mmHg 87%
22:00 +7°C° 0 mm 3 mps 758 mmHg 87%
23:00 +6°C° 0 mm 4 mps 758 mmHg 87%

30 October, Friday

Time Temperature Precipitation Wind Pressure Humidity
00:00 +6°C° 0 mm 4 mps 758 mmHg 87%
01:00 +5°C° 0 mm 4 mps 759 mmHg 87%
02:00 +5°C° 0 mm 4 mps 759 mmHg 89%
03:00 +5°C° 0 mm 4 mps 759 mmHg 90%
04:00 +5°C° 0 mm 5 mps 759 mmHg 92%
05:00 +6°C° 0 mm 5 mps 759 mmHg 90%
06:00 +6°C° 0 mm 5 mps 760 mmHg 88%
07:00 +6°C° 0 mm 5 mps 760 mmHg 87%
08:00 +7°C° 0 mm 5 mps 760 mmHg 84%
09:00 +7°C° 0 mm 5 mps 760 mmHg 81%
10:00 +8°C° 0 mm 5 mps 761 mmHg 78%
11:00 +8°C° 0 mm 5 mps 761 mmHg 76%
12:00 +9°C° 0 mm 5 mps 761 mmHg 74%
13:00 +9°C° 0 mm 5 mps 761 mmHg 72%
14:00 +10°C° 0 mm 4 mps 761 mmHg 74%
15:00 +9°C° 0 mm 3 mps 761 mmHg 75%
16:00 +9°C° 0 mm 3 mps 761 mmHg 77%
17:00 +8°C° 0 mm 2 mps 761 mmHg 80%
18:00 +7°C° 0 mm 2 mps 761 mmHg 83%
19:00 +7°C° 0 mm 2 mps 762 mmHg 86%
20:00 +6°C° 0 mm 2 mps 762 mmHg 88%
21:00 +7°C° 0 mm 1 mps 762 mmHg 90%
22:00 +7°C° 0 mm 1 mps 762 mmHg 91%
23:00 +7°C° 0 mm 1 mps 762 mmHg 92%

31 October, Saturday

Time Temperature Precipitation Wind Pressure Humidity
00:00 +7°C° 0 mm 1 mps 763 mmHg 92%
01:00 +6°C° 0 mm 1 mps 763 mmHg 93%
02:00 +6°C° 0 mm 1 mps 763 mmHg 93%
03:00 +6°C° 0 mm 1 mps 763 mmHg 93%
04:00 +6°C° 0 mm 1 mps 763 mmHg 93%
05:00 +6°C° 0 mm 1 mps 763 mmHg 93%
06:00 +6°C° 0 mm 1 mps 763 mmHg 93%
07:00 +5°C° 0 mm 2 mps 763 mmHg 93%
08:00 +6°C° 0 mm 2 mps 763 mmHg 89%
09:00 +8°C° 0 mm 2 mps 764 mmHg 84%
10:00 +9°C° 0 mm 2 mps 764 mmHg 80%
11:00 +10°C° 0 mm 2 mps 764 mmHg 77%
12:00 +12°C° 0 mm 2 mps 764 mmHg 73%
13:00 +12°C° 0 mm 2 mps 763 mmHg 70%
14:00 +12°C° 0 mm 2 mps 764 mmHg 73%
15:00 +10°C° 0 mm 2 mps 764 mmHg 76%
16:00 +9°C° 0 mm 2 mps 764 mmHg 79%
17:00 +8°C° 0 mm 2 mps 764 mmHg 82%
18:00 +8°C° 0 mm 2 mps 764 mmHg 84%
19:00 +7°C° 0 mm 3 mps 764 mmHg 87%
20:00 +7°C° 0 mm 3 mps 764 mmHg 87%
21:00 +5°C° 0 mm 3 mps 764 mmHg 87%
22:00 +5°C° 0 mm 3 mps 765 mmHg 87%
23:00 +5°C° 0 mm 3 mps 765 mmHg 87%

1 November, Sunday

Time Temperature Precipitation Wind Pressure Humidity
00:00 +4°C° 0 mm 3 mps 765 mmHg 87%
01:00 +4°C° 0 mm 3 mps 765 mmHg 87%
02:00 +4°C° 0 mm 3 mps 765 mmHg 88%
03:00 +4°C° 0 mm 3 mps 765 mmHg 89%
04:00 +4°C° 0 mm 3 mps 765 mmHg 90%
05:00 +3°C° 0 mm 3 mps 765 mmHg 91%
06:00 +3°C° 0 mm 3 mps 765 mmHg 91%
07:00 +3°C° 0 mm 3 mps 765 mmHg 91%
08:00 +4°C° 0 mm 3 mps 765 mmHg 86%
09:00 +6°C° 0 mm 4 mps 765 mmHg 80%
10:00 +7°C° 0 mm 4 mps 765 mmHg 75%
11:00 +8°C° 0 mm 4 mps 765 mmHg 71%
12:00 +10°C° 0 mm 4 mps 764 mmHg 67%
13:00 +11°C° 0 mm 4 mps 764 mmHg 63%
14:00 +10°C° 0 mm 4 mps 764 mmHg 67%
15:00 +9°C° 0 mm 3 mps 764 mmHg 70%
16:00 +8°C° 0 mm 3 mps 764 mmHg 74%
17:00 +8°C° 0 mm 3 mps 764 mmHg 77%
18:00 +7°C° 0 mm 3 mps 764 mmHg 79%
19:00 +5°C° 0 mm 3 mps 764 mmHg 82%
20:00 +5°C° 0 mm 3 mps 764 mmHg 83%
21:00 +5°C° 0 mm 3 mps 764 mmHg 85%
22:00 +5°C° 0 mm 3 mps 764 mmHg 86%
23:00 +4°C° 0 mm 3 mps 764 mmHg 87%
Show more